SAS712 ESSA-EFHK

Flight info

Callsign SAS712
Flight time 0h 43m
Altitude 31000
Route TOVRI6C TOVRI N851 RIKUM DCT RIRIP Y364 LAKUT LAKUT9B
Aircraft A320/M-SDE3FGHIRWY/LB1

Departure

Time 2026-04-26 19:10
Airport Stockholm-Arlanda Airport (ESSA)

Arrival

Time 2026-04-26 19:53
Airport Helsinki Vantaa Airport (EFHK)
Time Latitude Longitude Altitude Speed Heading
2026-04-26 18:29 59.65434 17.93515 138 ft 0 kts 74°
2026-04-26 18:51 59.65434 17.93512 137 ft 2 kts 74°
2026-04-26 18:51 59.65428 17.93470 137 ft 3 kts 70°
2026-04-26 18:52 59.65419 17.93429 137 ft 3 kts 62°
2026-04-26 18:52 59.65407 17.93392 137 ft 3 kts 43°
2026-04-26 18:52 59.65390 17.93372 137 ft 3 kts 354°
2026-04-26 18:52 59.65381 17.93375 137 ft 0 kts 346°
2026-04-26 18:58 59.65414 17.93358 137 ft 11 kts 346°
2026-04-26 18:58 59.65514 17.93294 137 ft 17 kts 315°
2026-04-26 18:58 59.65503 17.93063 138 ft 19 kts 255°
2026-04-26 18:59 59.65458 17.92804 138 ft 21 kts 248°
2026-04-26 18:59 59.65368 17.92555 138 ft 24 kts 222°
2026-04-26 18:59 59.65221 17.92391 138 ft 26 kts 195°
2026-04-26 18:59 59.65032 17.92322 138 ft 29 kts 190°
2026-04-26 19:00 59.64860 17.92262 138 ft 18 kts 190°
2026-04-26 19:00 59.64725 17.92214 137 ft 21 kts 191°
2026-04-26 19:00 59.64572 17.92156 138 ft 24 kts 191°
2026-04-26 19:00 59.64399 17.92092 138 ft 27 kts 189°
2026-04-26 19:01 59.64325 17.91934 138 ft 16 kts 239°
2026-04-26 19:01 59.64215 17.91859 138 ft 18 kts 188°
2026-04-26 19:01 59.64080 17.91813 138 ft 21 kts 191°
2026-04-26 19:01 59.63926 17.91755 138 ft 15 kts 190°
2026-04-26 19:02 59.63862 17.91723 138 ft 10 kts 204°
2026-04-26 19:02 59.63797 17.91633 139 ft 12 kts 221°
2026-04-26 19:02 59.63787 17.91614 139 ft 0 kts 222°
2026-04-26 19:03 59.63786 17.91613 139 ft 1 kts 222°
2026-04-26 19:04 59.63776 17.91595 139 ft 3 kts 221°
2026-04-26 19:04 59.63731 17.91496 140 ft 15 kts 246°
2026-04-26 19:04 59.63764 17.91350 146 ft 12 kts 330°
2026-04-26 19:04 59.63794 17.91343 146 ft 0 kts
2026-04-26 19:09 59.63799 17.91344 146 ft 3 kts
2026-04-26 19:09 59.63936 17.91395 145 ft 52 kts 10°
2026-04-26 19:09 59.64518 17.91601 145 ft 114 kts 10°
2026-04-26 19:09 59.65455 17.91915 211 ft 152 kts 10°
2026-04-26 19:10 59.66478 17.92311 824 ft 151 kts
2026-04-26 19:10 59.67511 17.92689 1504 ft 149 kts
2026-04-26 19:10 59.68564 17.93037 1976 ft 165 kts
2026-04-26 19:10 59.69775 17.93456 2361 ft 185 kts
2026-04-26 19:11 59.71063 17.93926 3085 ft 190 kts
2026-04-26 19:11 59.72372 17.94411 3901 ft 192 kts
2026-04-26 19:11 59.73696 17.94901 4689 ft 197 kts
2026-04-26 19:11 59.74968 17.96057 4956 ft 220 kts 41°
2026-04-26 19:12 59.75711 17.99004 5023 ft 261 kts 77°
2026-04-26 19:12 59.75789 18.02683 5006 ft 271 kts 87°
2026-04-26 19:12 59.75691 18.06427 5005 ft 272 kts 90°
2026-04-26 19:12 59.75543 18.10179 5007 ft 273 kts 90°
2026-04-26 19:13 59.75395 18.13924 5005 ft 273 kts 90°
2026-04-26 19:13 59.75284 18.17633 5005 ft 272 kts 88°
2026-04-26 19:13 59.75235 18.21383 5012 ft 272 kts 86°
2026-04-26 19:13 59.75221 18.25130 5013 ft 272 kts 86°
2026-04-26 19:14 59.75216 18.28878 5007 ft 272 kts 85°
2026-04-26 19:14 59.75211 18.32613 5001 ft 272 kts 85°
2026-04-26 19:14 59.75203 18.36371 5002 ft 272 kts 86°
2026-04-26 19:14 59.75196 18.38850 5009 ft 272 kts 86°
2026-04-26 19:15 59.75178 18.43909 5590 ft 276 kts 85°
2026-04-26 19:15 59.75459 18.47607 6624 ft 268 kts 64°
2026-04-26 19:15 59.76209 18.50932 7512 ft 269 kts 59°
2026-04-26 19:15 59.77011 18.54307 8375 ft 273 kts 59°
2026-04-26 19:16 59.77830 18.57739 9221 ft 278 kts 59°
2026-04-26 19:16 59.78661 18.61230 10050 ft 282 kts 59°
2026-04-26 19:16 59.79521 18.64847 10508 ft 300 kts 59°
2026-04-26 19:16 59.80445 18.68722 10808 ft 319 kts 59°
2026-04-26 19:17 59.81386 18.72718 11191 ft 312 kts 59°
2026-04-26 19:17 59.82260 18.76509 11305 ft 292 kts 59°
2026-04-26 19:17 59.83075 18.80070 11446 ft 278 kts 58°
2026-04-26 19:17 59.83912 18.83648 11622 ft 297 kts 58°
2026-04-26 19:18 59.84815 18.87446 11847 ft 319 kts 58°
2026-04-26 19:18 59.85775 18.91511 12381 ft 328 kts 58°
2026-04-26 19:18 59.86742 18.95666 13127 ft 332 kts 58°
2026-04-26 19:18 59.87711 18.99861 13876 ft 336 kts 58°
2026-04-26 19:19 59.88691 19.04111 14533 ft 339 kts 58°
2026-04-26 19:19 59.89682 19.08405 15162 ft 342 kts 57°
2026-04-26 19:19 59.90678 19.12732 15783 ft 346 kts 57°
2026-04-26 19:19 59.91685 19.17115 16408 ft 349 kts 56°
2026-04-26 19:20 59.92698 19.21531 17036 ft 352 kts 56°
2026-04-26 19:20 59.93374 19.24482 17493 ft 355 kts 56°
2026-04-26 19:20 59.94735 19.30452 18363 ft 358 kts 55°
2026-04-26 19:20 59.95769 19.34995 18927 ft 361 kts 55°
2026-04-26 19:21 59.96797 19.39593 19488 ft 368 kts 58°
2026-04-26 19:21 59.97564 19.44565 20050 ft 381 kts 65°
2026-04-26 19:21 59.98191 19.49742 20620 ft 385 kts 65°
2026-04-26 19:21 59.98823 19.54953 21162 ft 388 kts 65°
2026-04-26 19:22 59.99465 19.60226 21700 ft 392 kts 65°
2026-04-26 19:22 60.00111 19.65538 22220 ft 395 kts 65°
2026-04-26 19:22 60.00761 19.70909 22736 ft 399 kts 65°
2026-04-26 19:22 60.01412 19.76326 23267 ft 403 kts 65°
2026-04-26 19:23 60.02057 19.81731 23746 ft 407 kts 65°
2026-04-26 19:23 60.02714 19.87241 24165 ft 410 kts 65°
2026-04-26 19:23 60.03378 19.92812 24597 ft 413 kts 65°
2026-04-26 19:23 60.04043 19.98406 25015 ft 416 kts 65°
2026-04-26 19:24 60.04712 20.04056 25427 ft 418 kts 65°
2026-04-26 19:24 60.05382 20.09740 25838 ft 421 kts 65°
2026-04-26 19:24 60.06497 20.21405 26647 ft 436 kts 72°
2026-04-26 19:25 60.06822 20.27470 27039 ft 440 kts 73°
2026-04-26 19:25 60.07020 20.31516 27325 ft 442 kts 73°
2026-04-26 19:25 60.07395 20.39685 27846 ft 446 kts 73°
2026-04-26 19:25 60.07670 20.45897 28218 ft 449 kts 73°
2026-04-26 19:26 60.07947 20.52140 28583 ft 452 kts 73°
2026-04-26 19:26 60.08232 20.58429 28937 ft 454 kts 73°
2026-04-26 19:26 60.08805 20.71056 29037 ft 456 kts 73°
2026-04-26 19:27 60.09366 20.83707 29037 ft 456 kts 73°
2026-04-26 19:27 60.09903 20.96272 29026 ft 456 kts 73°
2026-04-26 19:28 60.10431 21.08927 29082 ft 456 kts 73°
2026-04-26 19:28 60.10955 21.21586 29020 ft 455 kts 73°
2026-04-26 19:29 60.11471 21.34227 29019 ft 455 kts 73°
2026-04-26 19:29 60.11960 21.46713 28986 ft 442 kts 74°
2026-04-26 19:30 60.12180 21.52770 28837 ft 429 kts 73°
2026-04-26 19:30 60.12394 21.58655 28628 ft 419 kts 73°
2026-04-26 19:30 60.12613 21.64463 28093 ft 418 kts 73°
2026-04-26 19:30 60.12762 21.68298 27788 ft 416 kts 73°
2026-04-26 19:31 60.13063 21.76009 27261 ft 413 kts 73°
2026-04-26 19:31 60.13282 21.81747 26841 ft 412 kts 74°
2026-04-26 19:31 60.13494 21.87472 26363 ft 411 kts 75°
2026-04-26 19:31 60.13699 21.93177 25946 ft 409 kts 75°
2026-04-26 19:32 60.13895 21.98774 25512 ft 408 kts 75°
2026-04-26 19:32 60.14090 22.04448 25074 ft 407 kts 75°
2026-04-26 19:32 60.14283 22.10102 24625 ft 406 kts 75°
2026-04-26 19:32 60.14475 22.15750 24156 ft 406 kts 75°
2026-04-26 19:33 60.14665 22.21403 23694 ft 406 kts 75°
2026-04-26 19:33 60.14853 22.27058 23252 ft 404 kts 75°
2026-04-26 19:33 60.15033 22.32656 22722 ft 403 kts 76°
2026-04-26 19:33 60.15210 22.38217 22405 ft 396 kts 76°
2026-04-26 19:34 60.15386 22.43742 21852 ft 395 kts 76°
2026-04-26 19:34 60.15554 22.49117 21519 ft 389 kts 76°
2026-04-26 19:34 60.15722 22.54498 20936 ft 383 kts 77°
2026-04-26 19:34 60.15883 22.59778 20266 ft 375 kts 78°
2026-04-26 19:35 60.16036 22.64904 19861 ft 359 kts 78°
2026-04-26 19:35 60.16179 22.69821 19433 ft 346 kts 79°
2026-04-26 19:35 60.16317 22.74556 19022 ft 334 kts 79°
2026-04-26 19:35 60.16450 22.79127 18624 ft 324 kts 79°
2026-04-26 19:36 60.16578 22.83579 18227 ft 314 kts 79°
2026-04-26 19:36 60.16660 22.86445 17942 ft 308 kts 79°
2026-04-26 19:36 60.16827 22.92177 17429 ft 308 kts 79°
2026-04-26 19:36 60.16951 22.96405 17047 ft 306 kts 79°
2026-04-26 19:37 60.17076 23.00674 16664 ft 307 kts 79°
2026-04-26 19:37 60.17198 23.04956 16287 ft 306 kts 80°
2026-04-26 19:37 60.17315 23.09226 15910 ft 306 kts 80°
2026-04-26 19:37 60.17428 23.13481 15533 ft 305 kts 80°
2026-04-26 19:38 60.17539 23.17740 15157 ft 305 kts 80°
2026-04-26 19:38 60.17649 23.21991 14782 ft 305 kts 81°
2026-04-26 19:38 60.17757 23.26242 14432 ft 305 kts 80°
2026-04-26 19:38 60.17862 23.30447 14058 ft 305 kts 79°
2026-04-26 19:39 60.17968 23.34713 13638 ft 306 kts 79°
2026-04-26 19:39 60.18072 23.38970 13243 ft 305 kts 79°
2026-04-26 19:39 60.18173 23.43216 12865 ft 303 kts 79°
2026-04-26 19:39 60.18271 23.47424 12487 ft 301 kts 80°
2026-04-26 19:40 60.18369 23.51618 12122 ft 299 kts 79°
2026-04-26 19:40 60.18468 23.55773 11749 ft 297 kts 79°
2026-04-26 19:40 60.18565 23.59925 11371 ft 296 kts 80°
2026-04-26 19:40 60.18656 23.63998 11008 ft 295 kts 80°
2026-04-26 19:41 60.18746 23.68109 10652 ft 294 kts 80°
2026-04-26 19:41 60.18834 23.72218 10275 ft 293 kts 80°
2026-04-26 19:41 60.18923 23.76291 9912 ft 293 kts 80°
2026-04-26 19:41 60.18982 23.78998 9703 ft 290 kts 80°
2026-04-26 19:42 60.19097 23.84376 9155 ft 283 kts 80°
2026-04-26 19:42 60.19176 23.88265 8805 ft 274 kts 80°
2026-04-26 19:42 60.19251 23.92021 8459 ft 265 kts 80°
2026-04-26 19:42 60.19323 23.95676 8126 ft 258 kts 80°
2026-04-26 19:43 60.19395 23.99246 7807 ft 256 kts 80°
2026-04-26 19:43 60.19467 24.02815 7481 ft 255 kts 80°
2026-04-26 19:43 60.19535 24.06325 7173 ft 253 kts 80°
2026-04-26 19:43 60.19604 24.09857 6845 ft 254 kts 81°
2026-04-26 19:44 60.19673 24.13411 6521 ft 255 kts 80°
2026-04-26 19:44 60.19742 24.16968 6181 ft 254 kts 81°
2026-04-26 19:44 60.19808 24.20525 5830 ft 254 kts 80°
2026-04-26 19:44 60.19875 24.24067 5507 ft 253 kts 81°
2026-04-26 19:45 60.19940 24.27600 5175 ft 253 kts 81°
2026-04-26 19:45 60.20000 24.31084 4861 ft 252 kts 81°
2026-04-26 19:45 60.20058 24.34598 4534 ft 251 kts 81°
2026-04-26 19:45 60.20117 24.38097 4208 ft 250 kts 81°
2026-04-26 19:46 60.20174 24.41541 3995 ft 244 kts 81°
2026-04-26 19:46 60.20230 24.44903 3852 ft 235 kts 81°
2026-04-26 19:46 60.20279 24.48116 3769 ft 223 kts 81°
2026-04-26 19:46 60.20321 24.51167 3690 ft 216 kts 80°
2026-04-26 19:47 60.20363 24.54133 3595 ft 208 kts 80°
2026-04-26 19:47 60.20389 24.56027 3534 ft 201 kts 79°
2026-04-26 19:47 60.20444 24.59717 3443 ft 191 kts 79°
2026-04-26 19:47 60.20481 24.62308 3345 ft 180 kts 79°
2026-04-26 19:48 60.20523 24.64710 3248 ft 167 kts 73°
2026-04-26 19:48 60.20787 24.66802 3171 ft 144 kts 56°
2026-04-26 19:48 60.21312 24.68373 3072 ft 132 kts 40°
2026-04-26 19:48 60.21901 24.69754 2953 ft 128 kts 38°
2026-04-26 19:49 60.22491 24.71090 2792 ft 127 kts 38°
2026-04-26 19:49 60.23072 24.72381 2622 ft 126 kts 37°
2026-04-26 19:49 60.23670 24.73699 2472 ft 123 kts 37°
2026-04-26 19:49 60.24248 24.74965 2282 ft 122 kts 37°
2026-04-26 19:50 60.24820 24.76218 2109 ft 121 kts 37°
2026-04-26 19:50 60.25392 24.77466 1933 ft 121 kts 37°
2026-04-26 19:50 60.25953 24.78692 1765 ft 121 kts 38°
2026-04-26 19:50 60.26526 24.79944 1588 ft 121 kts 38°
2026-04-26 19:51 60.27100 24.81198 1415 ft 122 kts 39°
2026-04-26 19:51 60.27678 24.82463 1239 ft 125 kts 39°
2026-04-26 19:51 60.28268 24.83778 1044 ft 128 kts 41°
2026-04-26 19:51 60.28880 24.85119 837 ft 132 kts 41°
2026-04-26 19:52 60.29518 24.86469 687 ft 133 kts 42°
2026-04-26 19:52 60.30150 24.87858 569 ft 135 kts 44°
2026-04-26 19:52 60.30791 24.89275 360 ft 136 kts 42°
2026-04-26 19:52 60.31411 24.90668 175 ft 135 kts 41°
2026-04-26 19:53 60.31998 24.91902 162 ft 99 kts 48°
2026-04-26 19:53 60.32329 24.92659 171 ft 36 kts 49°
2026-04-26 19:53 60.32436 24.93049 175 ft 32 kts 76°
2026-04-26 19:53 60.32459 24.93240 178 ft 12 kts 78°
2026-04-26 19:54 60.32479 24.93421 178 ft 15 kts 77°
2026-04-26 19:54 60.32503 24.93640 179 ft 17 kts 77°
2026-04-26 19:54 60.32535 24.93898 179 ft 20 kts 65°
2026-04-26 19:54 60.32626 24.94127 180 ft 22 kts 47°
2026-04-26 19:55 60.32736 24.94357 182 ft 24 kts 45°
2026-04-26 19:55 60.32832 24.94568 195 ft 18 kts 47°
2026-04-26 19:55 60.32884 24.94682 196 ft 19 kts 46°
2026-04-26 19:55 60.32918 24.94881 182 ft 14 kts 123°
2026-04-26 19:56 60.32826 24.94955 177 ft 18 kts 161°
2026-04-26 19:56 60.32686 24.95050 171 ft 24 kts 161°
2026-04-26 19:56 60.32525 24.95155 167 ft 22 kts 162°
2026-04-26 19:56 60.32363 24.95259 164 ft 26 kts 162°
2026-04-26 19:57 60.32225 24.95483 162 ft 23 kts 137°
2026-04-26 19:57 60.32100 24.95715 161 ft 26 kts 138°
2026-04-26 19:57 60.31963 24.95963 162 ft 24 kts 137°
2026-04-26 19:57 60.31869 24.96148 164 ft 17 kts 128°
2026-04-26 19:58 60.31872 24.96360 166 ft 6 kts 54°
2026-04-26 19:58 60.31861 24.96419 167 ft 5 kts 124°
2026-04-26 19:58 60.31843 24.96462 168 ft 0 kts 135°
2026-04-26 20:06 60.31843 24.96463 168 ft 0 kts 135°